Regional Weather Roundup
Issued by NWS Albany, NY

Home | Current Version | Previous Version | Text Only | Print | Product List | Glossary On
Versions: 1 2 3 4 5 6 7 8 9 10 11 12 13 14 15 16 17 18 19 20 21 22 23 24 25 26 27 28 29 30 31 32 33 34 35 36 37 38 39 40 41 42 43 44 45 46 47 48 49
000
ASUS41 KALY 301310
RWRALY

NEW YORK STATE HOURLY WEATHER ROUNDUP
NATIONAL WEATHER SERVICE ALBANY NY
900 AM EDT THU JUL 30 2015

NOTE: "FAIR" INDICATES FEW OR NO CLOUDS BELOW 12,000 FEET WITH NO
SIGNIFICANT WEATHER AND/OR NO OBSTRUCTIONS TO VISIBILITY.

NYZ032-033-038>043-046>054-057>066-NYZ062>081-301400-
EAST


CITY           SKY/WX    TMP DP  RH WIND       PRES   REMARKS
ALBANY         PTSUNNY   79  69  71 S8        29.85F
GLENS FALLS    MOSUNNY   78  68  71 S8        29.83F
POUGHKEEPSIE   CLOUDY    81  72  74 VRB5      29.87F
NEWBURGH       CLOUDY    79  73  83 SW12      29.91F
MONTGOMERY     PTSUNNY   80  74  81 SW6       29.89F
WHITE PLAINS   PTSUNNY   78  73  84 S3        29.91F
ISLIP          PTSUNNY   79  72  79 SW12      29.91S
NEW YORK CITY  CLOUDY    81  71  71 SW8G17    29.90F
CENTRAL PARK   CLOUDY    79  71  76 MISG      29.94S
$$

NYZ005>009-017-018-044>046-055-056-301400-
CENTRAL


CITY           SKY/WX    TMP DP  RH WIND       PRES   REMARKS
FULTON         RAIN      73  70  90 SW7       29.83R VSB 3/4
SYRACUSE       RAIN      75  73  93 W12       29.82R FOG
ROME           PTSUNNY   76  70  82 E6        29.83S
ELMIRA         RAIN      73  72  96 SW7       29.87R FOG
BINGHAMTON     CLOUDY    74  71  91 SW10      29.90S
MONTICELLO     CLOUDY    73  72  94 S3        29.94F
$$

NYZ026>034-041>043-301400-
NORTH


CITY           SKY/WX    TMP DP  RH WIND       PRES   REMARKS
WATERTOWN      LGT RAIN  72  71  97 SW9       29.78F FOG
FORT DRUM      NOT AVBL
MASSENA        LGT RAIN  76  67  73 SW9       29.75S
SARANAC LAKE   MOSUNNY   74  67  78 SW9       29.82F
PLATTSBURGH    MOSUNNY   73  68  84 CALM      29.77F HAZE
$$

NYZ001>004-010>016-019>021-301400-
WEST


CITY           SKY/WX    TMP DP  RH WIND       PRES   REMARKS
NIAGARA FALLS  MOSUNNY   76  60  57 W9        29.86S
BUFFALO        PTSUNNY   76  60  57 W9        29.87S
DUNKIRK        PTSUNNY   74  66  76 SW7       29.90S
JAMESTOWN      PTSUNNY   70  63  78 W8        29.96R
WELLSVILLE     PTSUNNY   70  65  84 W8        29.96S
ROCHESTER      PTSUNNY   75  71  87 W8        29.84S
PENN YAN       LGT RAIN  73  71  93 CALM      29.87S FOG
$$

             KEY
       WCI = WIND CHILL INDEX
       VSB = VISIBILITY
       HX  = HEAT INDEX
$$


USA.gov is the U.S. government's official web portal to all federal, state and local government web resources and services.